EW8073 Weather Reports


time (UTC)temp
F
wind
direction
speed
knots
gust
knots
rain 1hr
in
rain 24hr
in
rain mn
in
humidity
%
barometer
mb
20260904073739 67 221 0.0 0.0 0.00 0.00 0.00 49 1013.4
20260904073233 67 221 0.0 0.0 0.00 0.00 0.00 48 1013.4
20260904072727 67 221 0.0 0.0 0.00 0.00 0.00 48 1013.4
20260904072220 68 221 0.0 0.0 0.00 0.00 0.00 48 1013.4
20260904071715 68 221 0.0 0.0 0.00 0.00 0.00 48 1013.6
20260904071208 68 221 0.0 0.0 0.00 0.00 0.00 47 1013.4
20260904070703 68 221 0.0 0.0 0.00 0.00 0.00 47 1013.4
20260904070203 69 221 0.0 0.0 0.00 0.00 0.00 47 1013.6
20260904065703 69 221 0.0 0.0 0.00 0.00 0.00 46 1013.6
20260904065203 69 221 0.0 0.0 0.00 0.00 0.00 46 1013.7
20260904064703 69 221 0.0 0.0 0.00 0.00 0.00 45 1013.7
20260904064204 69 221 0.0 0.0 0.00 0.00 0.00 44 1013.8
20260904063703 69 221 0.0 0.0 0.00 0.00 0.00 44 1013.7
20260904063201 70 221 0.0 0.0 0.00 0.00 0.00 44 1013.8
20260904061659 70 221 0.0 0.0 0.00 0.00 0.00 43 1013.7
20260904061159 70 221 0.0 0.0 0.00 0.00 0.00 43 1013.7
20260904060658 71 221 0.0 0.0 0.00 0.00 0.00 42 1013.7
20260904060157 71 221 0.0 0.0 0.00 0.00 0.00 42 1013.7
20260904055659 71 221 0.0 0.0 0.00 0.00 0.00 42 1013.7
20260904055155 71 221 0.0 0.0 0.00 0.00 0.00 42 1013.7
20260904053653 70 221 0.0 0.0 0.00 0.00 0.00 43 1013.7
20260904053154 70 220 0.0 0.0 0.00 0.00 0.00 43 1013.6
20260904052654 70 220 0.0 0.0 0.00 0.00 0.00 43 1013.6
20260904052153 70 220 0.0 0.0 0.00 0.00 0.00 42 1013.4
20260904051651 70 220 0.0 0.0 0.00 0.00 0.00 43 1013.6
20260904050652 71 220 0.0 0.0 0.00 0.00 0.00 41 1013.6
20260904050152 71 220 0.0 0.0 0.00 0.00 0.00 41 1013.6
20260904045651 71 220 0.0 0.0 0.00 0.00 0.00 42 1013.6
20260904045152 72 257 0.0 0.0 0.00 0.00 0.00 41 1013.4
20260904044648 72 257 0.0 0.0 0.00 0.00 0.00 41 1013.2
20260904044148 72 257 0.0 0.0 0.00 0.00 0.00 40 1013.2
20260904043647 73 257 0.0 0.0 0.00 0.00 0.00 39 1013.1
20260904043147 73 257 0.0 0.0 0.00 0.00 0.00 39 1013.1
20260904042648 73 257 0.0 0.0 0.00 0.00 0.00 38 1013.0
20260904042148 73 257 0.0 0.0 0.00 0.00 0.00 38 1013.0
20260904041147 74 257 0.0 0.0 0.00 0.00 0.00 36 1012.9
20260904040648 74 257 0.0 0.0 0.00 0.00 0.00 36 1012.7
20260904040147 74 257 0.0 0.0 0.00 0.00 0.00 35 1012.7
20260904035647 75 258 0.0 0.0 0.00 0.00 0.00 34 1012.9
20260904035148 75 299 0.0 0.0 0.00 0.00 0.00 32 1012.7
20260904034647 76 307 0.0 0.0 0.00 0.00 0.00 32 1012.6
20260904034147 76 307 0.0 0.0 0.00 0.00 0.00 31 1012.5
20260904033145 77 307 0.0 0.0 0.00 0.00 0.00 30 1012.3
20260904032645 77 307 0.0 0.0 0.00 0.00 0.00 30 1012.3
20260904032145 77 307 0.0 0.0 0.00 0.00 0.00 30 1012.3
20260904031641 77 37 0.0 0.0 0.00 0.00 0.00 30 1012.3
20260904031143 78 246 0.0 0.0 0.00 0.02 0.00 30 1012.2
20260904030637 78 247 0.0 0.0 0.00 0.02 0.00 29 1012.2
20260904030132 78 114 0.0 0.0 0.00 0.02 0.00 29 1011.9
20260904025626 77 136 0.0 0.0 0.00 0.02 0.00 29 1011.8
20260904025120 77 120 0.0 0.0 0.00 0.02 0.00 30 1011.8
20260904024614 77 119 0.0 0.0 0.00 0.02 0.00 30 1011.8
20260904024108 78 62 0.0 0.0 0.00 0.02 0.00 30 1011.8
20260904023602 78 61 0.0 0.0 0.00 0.02 0.00 30 1011.9
20260904023055 78 61 0.0 0.0 0.00 0.02 0.00 30 1011.8
20260904022550 79 61 0.0 0.0 0.00 0.02 0.00 29 1011.8
20260904022043 79 61 0.0 0.0 0.00 0.02 0.00 29 1011.7
20260904021537 80 61 0.0 0.0 0.00 0.02 0.00 29 1011.7
20260904021031 80 61 0.0 0.0 0.00 0.02 0.00 28 1011.7
20260904020525 81 61 0.0 0.0 0.00 0.02 0.00 27 1011.7
20260904020020 81 57 0.0 0.0 0.00 0.02 0.00 27 1011.6
20260904015514 82 57 0.0 0.0 0.00 0.02 0.00 26 1011.6
20260904013955 84 56 0.0 2.6 0.00 0.02 0.00 25 1011.5
20260904013449 84 55 0.0 3.5 0.00 0.02 0.00 25 1011.5
20260904012943 85 54 0.9 3.5 0.00 0.02 0.00 24 1011.5
20260904012437 85 64 0.0 2.6 0.00 0.02 0.00 24 1011.6
20260904011425 86 338 0.0 0.9 0.00 0.02 0.00 23 1011.6
20260904010921 86 312 0.0 0.9 0.00 0.02 0.00 22 1011.7
20260904005909 87 67 0.0 0.0 0.00 0.02 0.00 22 1011.7
20260904005403 87 57 0.0 0.0 0.00 0.02 0.00 22 1011.7
20260904004350 87 80 0.0 0.0 0.00 0.02 0.00 23 1011.7
20260904003843 88 80 0.0 0.0 0.00 0.02 0.00 23 1011.8
20260904003338 88 81 0.0 0.0 0.00 0.02 0.00 24 1011.8
20260904002832 88 130 0.0 1.7 0.00 0.02 0.00 23 1011.8
20260904002325 88 227 0.0 1.7 0.00 0.02 0.00 22 1011.8
20260904001820 89 46 0.0 0.9 0.00 0.02 0.00 23 1011.7
20260904001315 89 326 0.0 0.0 0.00 0.02 0.00 23 1011.8
20260904000303 89 155 0.0 2.6 0.00 0.02 0.00 22 1011.7
20260903235755 89 74 0.0 0.0 0.00 0.02 0.00 24 1011.8
20260903235249 89 69 0.0 0.0 0.00 0.02 0.00 23 1011.8
20260903234743 90 304 0.0 0.0 0.00 0.02 0.00 22 1011.9
20260903234237 89 58 0.9 3.5 0.00 0.02 0.00 23 1011.9
20260903233731 89 227 0.9 3.5 0.00 0.02 0.00 22 1011.9
20260903233225 90 172 0.0 0.0 0.00 0.02 0.00 24 1011.9
20260903232720 90 273 0.0 0.0 0.00 0.02 0.00 23 1011.9
20260903232215 90 101 0.0 0.0 0.00 0.02 0.00 24 1011.9
20260903231201 90 77 0.0 0.0 0.00 0.02 0.00 24 1011.9
20260903230655 91 151 0.0 0.0 0.00 0.02 0.00 22 1011.9
20260903230150 91 155 0.0 4.3 0.00 0.02 0.00 22 1012.0
20260903225644 92 183 0.0 4.3 0.00 0.02 0.00 22 1012.0
20260903225137 92 149 0.9 5.2 0.00 0.02 0.00 22 1012.0
20260903224126 92 355 0.0 0.0 0.00 0.02 0.00 25 1011.9
20260903223619 91 333 0.0 3.5 0.00 0.02 0.00 24 1012.0
20260903223113 92 210 0.0 3.5 0.00 0.02 0.00 23 1011.9
20260903222607 92 125 0.9 5.2 0.00 0.02 0.00 22 1011.9
20260903222101 92 134 0.0 5.2 0.00 0.02 0.00 20 1012.2
20260903221556 92 128 0.0 0.0 0.00 0.02 0.00 23 1012.0
20260903215551 91 121 0.0 1.7 0.00 0.02 0.00 23 1012.3
20260903215053 90 85 0.0 0.0 0.00 0.02 0.00 23 1012.4
20260903214549 91 169 0.0 0.0 0.00 0.02 0.00 23 1012.5
20260903214047 90 170 0.0 0.0 0.00 0.02 0.00 19 1012.6
20260903213547 90 138 0.0 0.0 0.00 0.02 0.00 22 1012.6
20260903213045 90 137 0.0 0.0 0.00 0.02 0.00 23 1012.7
20260903212544 91 137 0.0 0.0 0.00 0.02 0.00 22 1012.9
20260903212047 90 134 0.0 0.0 0.00 0.02 0.00 26 1012.9
20260903211044 90 292 0.0 0.0 0.00 0.02 0.00 22 1013.0
20260903210540 90 111 0.0 0.0 0.00 0.02 0.00 21 1013.1
20260903210039 91 113 0.0 0.0 0.00 0.02 0.00 24 1013.2
20260903205039 89 105 0.0 0.0 0.00 0.02 0.00 24 1013.2
20260903204538 89 67 0.0 0.0 0.00 0.02 0.00 25 1013.3
20260903203533 88 22 0.0 0.0 0.00 0.02 0.00 22 1013.4
20260903203032 88 78 0.0 0.0 0.00 0.02 0.00 26 1013.7
20260903201532 88 78 0.0 0.0 0.00 0.02 0.00 27 1013.8
20260903201033 88 80 0.0 0.0 0.00 0.02 0.00 28 1013.8
20260903200533 87 80 0.0 0.0 0.00 0.02 0.00 29 1013.8
20260903195532 88 196 0.0 0.0 0.00 0.02 0.00 30 1014.0
20260903195033 87 196 0.0 0.0 0.00 0.02 0.00 26 1014.0
20260903194530 87 231 0.0 0.9 0.00 0.02 0.00 27 1014.1
20260903194029 86 231 0.0 0.9 0.00 0.02 0.00 27 1014.1
20260903193528 86 232 0.0 0.0 0.00 0.02 0.00 30 1014.3
20260903193028 86 232 0.0 0.0 0.00 0.02 0.00 23 1014.4
20260903192528 86 229 0.0 0.0 0.00 0.02 0.00 26 1014.4
20260903192029 86 229 0.0 0.0 0.00 0.02 0.00 27 1014.5
20260903191530 85 253 0.0 0.0 0.00 0.02 0.00 26 1014.5
20260903191029 85 177 0.0 0.0 0.00 0.02 0.00 29 1014.5
20260903190529 85 165 0.0 0.0 0.00 0.02 0.00 28 1014.6
20260903190026 85 245 0.0 0.0 0.00 0.02 0.00 28 1014.6
20260903185524 85 105 0.0 0.0 0.00 0.02 0.00 28 1014.7
20260903185025 84 106 0.0 0.0 0.00 0.02 0.00 29 1014.7
20260903184526 84 106 0.0 1.7 0.00 0.02 0.00 29 1014.8
20260903184025 84 106 0.0 4.3 0.00 0.02 0.00 28 1015.0
20260903183028 83 84 0.0 0.9 0.00 0.02 0.00 31 1015.1
20260903182527 83 84 0.0 0.0 0.00 0.02 0.00 28 1015.2
20260903182028 83 84 0.0 0.0 0.00 0.02 0.00 32 1015.3
20260903181519 83 84 0.0 0.0 0.00 0.02 0.00 31 1015.4
20260903181015 83 84 0.0 0.0 0.00 0.02 0.00 32 1015.4
20260903180002 82 86 0.0 2.6 0.00 0.02 0.00 33 1015.5
20260903175458 82 281 0.0 2.6 0.00 0.02 0.00 32 1015.5
20260903174950 82 281 0.0 2.6 0.00 0.02 0.00 32 1015.7
20260903174445 81 280 0.0 2.6 0.00 0.02 0.00 32 1015.7
20260903173938 81 226 0.0 0.0 0.00 0.02 0.00 33 1015.8
20260903173433 81 226 0.0 0.0 0.00 0.02 0.00 31 1015.9
20260903172926 80 226 0.0 0.0 0.00 0.02 0.00 32 1015.9
20260903171410 80 225 0.0 0.9 0.00 0.02 0.00 37 1015.9
20260903170903 79 225 0.0 0.0 0.00 0.02 0.00 38 1015.9
20260903170357 79 242 0.0 0.0 0.00 0.02 0.00 38 1015.9
20260903165345 78 242 0.0 0.9 0.00 0.02 0.00 36 1016.0
20260903164838 78 242 0.0 0.9 0.00 0.02 0.00 39 1016.0
20260903164332 78 242 0.0 0.0 0.00 0.02 0.00 40 1016.0
20260903163826 77 242 0.0 0.0 0.00 0.02 0.00 39 1016.0
20260903163322 77 242 0.0 0.0 0.00 0.02 0.00 42 1016.0
20260903162814 76 242 0.0 0.0 0.00 0.02 0.00 41 1016.1
20260903162307 76 241 0.0 0.9 0.00 0.02 0.00 44 1016.0
20260903161800 76 242 0.0 0.9 0.00 0.02 0.00 43 1016.0
20260903161255 75 242 0.0 0.0 0.00 0.02 0.00 46 1016.0
20260903160749 75 242 0.0 0.0 0.00 0.02 0.00 46 1016.0
20260903160242 74 242 0.0 0.0 0.00 0.02 0.00 48 1016.0
20260903155737 73 242 0.0 0.9 0.00 0.02 0.00 49 1016.0
20260903155230 73 242 0.0 0.9 0.00 0.02 0.00 50 1016.0
20260903154726 72 242 0.0 0.0 0.00 0.02 0.00 50 1015.9
20260903154219 72 242 0.0 0.9 0.00 0.02 0.00 51 1016.0
20260903153712 71 242 0.0 0.9 0.00 0.02 0.00 52 1016.0
20260903153206 71 242 0.0 0.0 0.00 0.02 0.00 52 1016.0
20260903152701 71 242 0.0 0.0 0.00 0.02 0.00 52 1016.1
20260903152154 70 242 0.0 0.0 0.00 0.02 0.00 55 1016.0
20260903151144 69 239 0.0 0.0 0.00 0.02 0.00 58 1016.1
20260903150638 69 230 0.0 0.0 0.00 0.02 0.00 60 1016.1
20260903150130 68 229 0.0 3.5 0.00 0.02 0.00 62 1016.2
20260903145625 67 226 0.0 3.5 0.00 0.02 0.00 63 1016.2
20260903145118 67 248 0.0 0.0 0.00 0.02 0.00 65 1016.2
20260903144612 66 248 0.0 0.0 0.00 0.02 0.00 65 1016.4
20260903144107 66 248 0.0 0.0 0.00 0.02 0.00 67 1016.4
20260903143602 65 248 0.0 0.0 0.00 0.02 0.00 68 1016.5
20260903143054 64 248 0.0 0.0 0.00 0.02 0.00 68 1016.4
20260903142548 64 252 0.0 0.0 0.00 0.02 0.00 70 1016.5
20260903142042 63 250 0.0 0.0 0.00 0.02 0.00 72 1016.5
20260903141537 62 251 0.0 0.0 0.00 0.02 0.00 73 1016.5
20260903141031 62 248 0.0 1.7 0.00 0.02 0.00 74 1016.4
20260903140018 60 261 0.0 1.7 0.00 0.02 0.00 76 1016.2
20260903135513 60 262 0.0 0.9 0.00 0.02 0.00 77 1016.2
20260903135007 59 261 0.0 0.0 0.00 0.02 0.00 78 1016.2
20260903134502 59 263 0.0 0.0 0.00 0.02 0.00 78 1016.2
20260903133954 59 263 0.0 0.0 0.00 0.02 0.00 78 1016.2
20260903133449 58 263 0.0 0.0 0.00 0.02 0.00 78 1016.1
20260903132942 58 263 0.0 0.0 0.00 0.02 0.00 78 1016.0
20260903132437 58 263 0.0 0.0 0.00 0.02 0.00 78 1015.9
20260903131931 58 263 0.0 0.0 0.00 0.02 0.00 78 1015.9
20260903131424 58 263 0.0 0.0 0.00 0.02 0.00 78 1015.9
20260903130918 58 263 0.0 0.0 0.00 0.02 0.00 78 1015.9
20260903125906 58 263 0.0 0.0 0.00 0.02 0.00 78 1015.7
20260903125400 58 263 0.0 0.0 0.00 0.02 0.00 78 1015.8
20260903124348 58 263 0.0 0.0 0.00 0.02 0.00 78 1015.5
20260903123843 58 263 0.0 0.0 0.00 0.02 0.00 78 1015.4
20260903123336 58 263 0.0 0.0 0.00 0.02 0.00 78 1015.5
20260903122831 58 263 0.0 0.9 0.00 0.02 0.00 79 1015.2
20260903122326 58 263 0.0 0.9 0.00 0.02 0.00 79 1015.2
20260903121313 58 263 0.0 0.0 0.00 0.02 0.00 79 1015.2
20260903120806 58 263 0.0 0.0 0.00 0.02 0.00 79 1015.2
20260903120301 58 263 0.0 0.0 0.00 0.02 0.00 79 1015.1
20260903115755 58 263 0.0 0.0 0.00 0.02 0.00 79 1015.2
20260903115248 58 263 0.0 0.0 0.00 0.02 0.00 79 1015.2
20260903114742 58 263 0.0 0.0 0.00 0.02 0.00 79 1015.1
20260903114236 58 263 0.0 0.0 0.00 0.02 0.00 79 1015.1
20260903113224 58 263 0.0 0.9 0.00 0.02 0.00 79 1015.1
20260903112723 59 263 0.0 0.9 0.00 0.02 0.00 79 1015.1
20260903112219 59 263 0.0 0.0 0.00 0.02 0.00 79 1015.1
20260903111721 59 263 0.0 0.0 0.00 0.02 0.00 79 1015.0
20260903110713 59 263 0.0 0.0 0.00 0.02 0.00 78 1015.0
20260903105710 59 263 0.0 0.0 0.00 0.02 0.00 78 1014.8
20260903105207 59 263 0.0 0.0 0.00 0.02 0.00 78 1014.7
20260903104208 60 263 0.0 0.0 0.00 0.02 0.00 78 1014.7
20260903103208 60 263 0.0 0.0 0.00 0.02 0.00 78 1014.8
20260903102709 60 263 0.0 0.0 0.00 0.02 0.00 78 1014.8
20260903102207 60 263 0.0 0.0 0.00 0.02 0.00 78 1014.8
20260903101709 60 263 0.0 0.0 0.00 0.02 0.00 78 1015.0
20260903101208 60 263 0.0 0.0 0.00 0.02 0.00 77 1015.1
20260903100707 60 263 0.0 0.0 0.00 0.02 0.00 77 1015.1
20260903100208 60 263 0.0 0.0 0.00 0.02 0.00 77 1015.1
20260903095207 61 263 0.0 0.0 0.00 0.02 0.00 77 1015.1
20260903094208 61 263 0.0 0.0 0.00 0.02 0.00 77 1015.1
20260903093208 61 263 0.0 0.9 0.00 0.02 0.00 77 1015.1
20260903092707 61 263 0.0 0.9 0.00 0.02 0.00 77 1015.0
20260903092208 61 263 0.0 0.9 0.00 0.02 0.00 77 1015.1
20260903091707 61 263 0.0 0.9 0.00 0.02 0.00 76 1015.2
20260903091207 61 263 0.0 0.9 0.00 0.02 0.00 77 1015.1
20260903090708 61 263 0.0 0.9 0.00 0.02 0.00 77 1015.0
20260903090207 61 263 0.0 0.9 0.00 0.02 0.00 77 1015.1
20260903085710 62 264 0.0 0.0 0.00 0.02 0.00 77 1015.0
20260903084658 62 264 0.0 0.0 0.00 0.02 0.00 77 1015.0
20260903084152 62 264 0.0 0.0 0.00 0.02 0.00 77 1015.0
20260903083646 62 264 0.0 0.0 0.00 0.02 0.00 76 1015.0
20260903083139 62 264 0.0 0.0 0.00 0.02 0.00 76 1015.0
20260903082634 62 264 0.0 0.0 0.00 0.02 0.00 76 1015.0
20260903082128 62 264 0.0 0.0 0.00 0.02 0.00 76 1014.8
20260903081116 62 264 0.0 0.0 0.00 0.02 0.00 75 1015.0
20260903080609 63 264 0.0 0.0 0.00 0.02 0.00 75 1015.1
20260903075558 63 264 0.0 0.0 0.00 0.02 0.00 75 1015.2
20260903075052 63 264 0.0 0.0 0.00 0.02 0.00 75 1015.3
20260903074546 63 264 0.0 0.0 0.00 0.02 0.00 75 1015.3